Location: Newark
(16.3678°N, 77.8722°E)
Time: 22:47:38
(UTC+00:00)

S-56A Canister/Altair - Pass Details

Date: 10 December 2019
Orbit: 634 x 2498 km, 38.9° (Epoch: 18 January)

Event Time Altitude Azimuth Distance (km) Brightness Sun altitude
Rises 05:58:35 0° 275° (W) 5,767 11.9 49.4°
Reaches altitude 10° 06:02:49 10° 284° (WNW) 4,939 11.6 49.6°
Maximum altitude 06:15:25 33° 344° (NNW) 3,598 10.9 50.2°
Drops below altitude 10° 06:28:00 10° 43° (NE) 4,905 11.5 50.6°
Sets 06:32:14 0° 53° (NE) 5,721 11.8 50.7°
